"Pseudo-MPEC" for or02259

Created 2023 Sep 22 12:22:34 UT using Find_Orb

Click here for an explanation of pseudo-MPECs

 
 Astrometry: 
     or02259*KC2023 09 17r?r_nK/^xNU'5TE4/E_b\/C(a0q$cX[AstrometryEPtmU),SWa4J43
     or02259 KC2023 09 17FpY5%Xtg:)0CEunI^t'st1GAf*Mt5.b+Bwredacted;dLR;U87,#J43
     or02259 KC2023 09 17OZ*T;IclickP\T#Vpld2Q`here0a6HkdnFVI_4.bC#es9?voii4VJ43
     or02259 KB2023 09 17tt@65V^kG#_G39KrNY4q\jvs@E=c3s^b9two3ipj(rWBC)pVAlreM45
     or02259 KB2023 09 17BE+hbIU5-=N[owH8H8for@tIb=S2sqS?Crbh$P+'_@4#IILrdd*vM45
     or02259 KB2023 09 174GmgY@83`5+HWcRbD7]X:`\@`T*=ri9,6-MoMeexplanation\gTM45

Station data:
(J43) Oukaïmeden Observatory, Marrakech  (N31.206437 W7.866460)  Morocco.
   Observer C. Rinner. Measurers C. Rinner, M. Ory. 0.5-m f/3 reflector + CCD.
(M45) Starhopper Observatory, Sfantu Gheorghe  (N45.865582 E25.768900)
   Romania.  Observer F. Ursache. 0.41-m f/7.5 reflector + CMO.

Orbital elements:  or02259
   Perihelion 2023 Aug 14.11108 +/- 66 TT =  2:39:57 (JD 2460170.61108)
Epoch 2023 Sep 17.0 TT = JDT 2460204.5   Earth MOID: 0.2083      AutoNEOCP
M  21.53546521 +/- 48               (J2000 ecliptic)
n   0.63547213 +/- 0.147            Peri.  335.94422 +/- 56
a   1.33989790 +/- 0.207            Node   353.84722 +/- 0.55
e   0.1006958 +/- 0.1               Incl.   31.51643 +/- 6
P   1.55/566.50d           H 22.21  G  0.15   U 11.5  SR
q 1.20497569 +/- 0.0806    Q 1.47482011 +/- 0.417
From 6 observations 2023 Sept. 17 (21.0 hr); mean residual 0".44
Residuals in arcseconds: 
230917 J43  .38+  .44+    230917 J43  .36+  .47+    230917 M45  .30+  .27+    
230917 J43  .74-  .91-    230917 M45  .07-  .30-    230917 M45  .22-  .03+    

Ephemerides (geocentric):
Date (UTC) HH   RA             Dec           delta  r     elong  mag " sig PA
---- --------  ------------   ------------  ------ ------ -----  --- --------
2023 09 22 12  23 35 11.016   +17 33 03.85  .22642 1.2205 161.3 20.3 1410  47
2023 09 22 13  23 34 54.294   +17 36 45.75  .22654 1.2205 161.2 20.3 1432  47
2023 09 22 14  23 34 37.581   +17 40 27.26  .22666 1.2205 161.2 20.3 1455  47
2023 09 22 15  23 34 20.876   +17 44 08.37  .22679 1.2205 161.1 20.3 1477  47
2023 09 22 16  23 34 04.180   +17 47 49.09  .22692 1.2206 161.0 20.3 1500  47
2023 09 22 17  23 33 47.492   +17 51 29.41  .22704 1.2206 160.9 20.3 1523  47
2023 09 22 18  23 33 30.814   +17 55 09.33  .22717 1.2206 160.9 20.3 1546  47
2023 09 22 19  23 33 14.144   +17 58 48.85  .22730 1.2207 160.8 20.3 1569  47
2023 09 22 20  23 32 57.484   +18 02 27.98  .22743 1.2207 160.7 20.3 1592  47
2023 09 22 21  23 32 40.832   +18 06 06.70  .22756 1.2207 160.6 20.3 1616  47
2023 09 22 22  23 32 24.190   +18 09 45.02  .22769 1.2208 160.6 20.3 1639  47
2023 09 22 23  23 32 07.557   +18 13 22.94  .22782 1.2208 160.5 20.3 1663  47
2023 09 23 00  23 31 50.933   +18 17 00.45  .22795 1.2208 160.4 20.3 1686  47
2023 09 23 01  23 31 34.319   +18 20 37.56  .22808 1.2209 160.3 20.3 1710  47
2023 09 23 02  23 31 17.714   +18 24 14.26  .22822 1.2209 160.3 20.3 1734  47
2023 09 23 03  23 31 01.120   +18 27 50.55  .22835 1.2209 160.2 20.3 1758  47
2023 09 23 04  23 30 44.534   +18 31 26.44  .22848 1.2210 160.1 20.3 1783  47
2023 09 23 05  23 30 27.959   +18 35 01.92  .22862 1.2210 160.0 20.3 1807  47
2023 09 23 06  23 30 11.394   +18 38 36.99  .22876 1.2210 160.0 20.3 1832  47
2023 09 23 07  23 29 54.839   +18 42 11.64  .22889 1.2211 159.9 20.3 1856  47
2023 09 23 08  23 29 38.293   +18 45 45.89  .22903 1.2211 159.8 20.3 1881  47
2023 09 23 09  23 29 21.758   +18 49 19.72  .22917 1.2211 159.7 20.3 1906  47
2023 09 23 10  23 29 05.234   +18 52 53.14  .22931 1.2212 159.6 20.3 1931  47
2023 09 23 11  23 28 48.720   +18 56 26.15  .22945 1.2212 159.6 20.3 1956  47
2023 09 23 12  23 28 32.216   +18 59 58.74  .22959 1.2212 159.5 20.3 1982  47
2023 09 23 13  23 28 15.723   +19 03 30.92  .22973 1.2213 159.4 20.3 2007  47
2023 09 23 14  23 27 59.240   +19 07 02.68  .22987 1.2213 159.3 20.3 2033  48
2023 09 23 15  23 27 42.769   +19 10 34.02  .23001 1.2213 159.3 20.3 2058  48
2023 09 23 16  23 27 26.308   +19 14 04.94  .23015 1.2214 159.2 20.4 2084  48
2023 09 23 17  23 27 09.858   +19 17 35.44  .23030 1.2214 159.1 20.4 2110  48
2023 09 23 18  23 26 53.419   +19 21 05.53  .23044 1.2214 159.0 20.4 2136  48
2023 09 23 19  23 26 36.991   +19 24 35.19  .23059 1.2215 158.9 20.4 2162  48
2023 09 23 20  23 26 20.575   +19 28 04.44  .23073 1.2215 158.9 20.4 2189  48
2023 09 23 21  23 26 04.170   +19 31 33.26  .23088 1.2215 158.8 20.4 2215  48
2023 09 23 22  23 25 47.776   +19 35 01.66  .23102 1.2216 158.7 20.4 2241  48
2023 09 23 23  23 25 31.394   +19 38 29.63  .23117 1.2216 158.6 20.4 2268  48
2023 09 24 00  23 25 15.023   +19 41 57.18  .23132 1.2216 158.5 20.4 2295  48
2023 09 24 01  23 24 58.664   +19 45 24.31  .23147 1.2217 158.5 20.4 2322  48
2023 09 24 02  23 24 42.316   +19 48 51.01  .23162 1.2217 158.4 20.4 2349  48
2023 09 24 03  23 24 25.981   +19 52 17.29  .23177 1.2217 158.3 20.4 2376  48
2023 09 24 04  23 24 09.657   +19 55 43.14  .23192 1.2218 158.2 20.4 2403  48
2023 09 24 05  23 23 53.345   +19 59 08.56  .23207 1.2218 158.1 20.4 2430  48
2023 09 24 06  23 23 37.046   +20 02 33.55  .23222 1.2218 158.1 20.4 2458  48
2023 09 24 07  23 23 20.758   +20 05 58.12  .23238 1.2218 158.0 20.4 2485  48
2023 09 24 08  23 23 04.483   +20 09 22.26  .23253 1.2219 157.9 20.4 2513  48
2023 09 24 09  23 22 48.221   +20 12 45.96  .23268 1.2219 157.8 20.4 2540  48
2023 09 24 10  23 22 31.970   +20 16 09.24  .23284 1.2219 157.7 20.4 2568  48
2023 09 24 11  23 22 15.732   +20 19 32.09  .23299 1.2220 157.7 20.4 2596  48